DateTimeUTC,F1_A11,F1_S11,BsB_S11,BsG_S11,BsR_S11,BbsB_S11,BbsG_S11,BbsR_S11,BaB_A11,BaG_A11,BaR_A11,Tu_S11,T_S11,Uu_S11,U_S11,P_S11,T1_A11
2021-08-31T08:00:00Z,00000200,21000000,,,,,,,0000.34,0000.01,0000.23,17.7,24.9,,00.0,0673.3,30.9
2021-08-31T08:01:00Z,00000200,21000000,,,,,,,-000.05,0000.27,-000.03,17.7,24.9,,00.0,0673.3,30.9
2021-08-31T08:02:00Z,00000200,21000000,,,,,,,0000.14,0000.49,0000.29,17.7,24.9,,00.0,0673.3,30.9
2021-08-31T08:03:00Z,00000200,61000000,,,,,,,0000.49,0000.68,0000.40,17.7,25.0,,00.0,0673.3,30.9
2021-08-31T08:04:00Z,00000200,41000000,0000.09,0000.29,0000.06,0000.47,-000.33,-000.00,0000.37,0000.20,0000.31,18.3,24.9,,00.0,0674.3,30.9
2021-08-31T08:05:00Z,00000200,01000000,0000.19,0000.34,-000.01,0000.21,0000.01,-000.05,0000.35,-000.43,-000.16,18.4,24.9,,00.0,0674.3,30.9
2021-08-31T08:06:00Z,00000200,01000000,0000.96,0000.31,0000.19,-000.06,-000.06,-000.16,-000.14,0000.28,0000.18,18.5,24.9,,00.0,0674.3,31.0
2021-08-31T08:07:00Z,00000200,01000000,-000.02,0000.07,-000.18,0000.90,0000.20,-000.15,0000.14,0000.28,-000.02,18.4,24.9,,00.0,0674.3,31.0
2021-08-31T08:08:00Z,00000200,01000000,0000.36,0000.15,0000.24,0000.45,0000.20,0000.33,0000.50,0000.09,0000.06,18.4,24.9,,00.0,0674.3,30.9
2021-08-31T08:09:00Z,00000200,01000000,0000.49,0000.00,0000.08,-000.06,0000.19,0000.18,-000.17,0000.53,0000.45,18.3,24.8,,00.0,0674.3,30.9
2021-08-31T08:10:00Z,00000200,01000000,0000.29,0000.48,0000.18,0000.16,0000.14,0000.02,0000.17,-000.30,0000.12,18.2,24.8,,00.0,0674.3,30.9
2021-08-31T08:11:00Z,00000200,01000000,0000.02,0000.39,-000.04,0000.43,0000.11,-000.17,0000.49,0000.12,-000.20,18.2,24.8,,00.0,0674.3,30.9
2021-08-31T08:12:00Z,00000200,01000000,0000.51,-000.07,-000.08,0000.72,-000.01,-000.05,0000.18,0000.54,0000.07,18.1,24.7,,00.0,0674.3,30.9
2021-08-31T08:13:00Z,00000200,01000000,-000.05,0000.08,0000.12,0000.33,-000.04,-000.11,-000.16,-000.21,0000.06,18.0,24.7,,00.0,0674.3,30.9
2021-08-31T08:14:00Z,00000200,01000000,-000.17,0000.08,-000.16,0000.65,0000.14,-000.48,0000.47,0000.59,0000.82,18.0,24.7,,00.0,0674.3,30.9
2021-08-31T08:15:00Z,00000200,01000000,0000.67,0000.10,-000.24,0000.40,0000.03,0000.11,0000.16,-000.33,-000.21,18.1,24.7,,00.0,0674.3,30.9
2021-08-31T08:16:00Z,00000200,01000000,-000.04,0000.16,-000.31,-000.60,0000.10,-000.36,-000.13,0000.32,-000.11,18.2,24.7,00.0,00.0,0674.3,30.9
2021-08-31T08:17:00Z,00000200,01000000,0000.15,0000.02,0000.11,-000.07,-000.13,0000.16,-000.35,-000.08,-000.34,18.3,24.7,,00.0,0674.3,30.9
2021-08-31T08:18:00Z,00000200,01000000,0000.91,0000.17,-000.06,0000.20,0000.03,0000.20,0000.19,0000.05,0000.19,18.4,24.8,,00.0,0674.3,30.9
2021-08-31T08:19:00Z,00000200,01000000,-000.58,0000.16,0000.14,0000.25,0000.02,0000.00,0000.11,-000.05,0000.09,18.5,24.9,00.0,00.0,0674.3,30.9
2021-08-31T08:20:00Z,00000200,01000000,0000.06,-000.21,-000.10,0000.32,0000.02,0000.25,-000.53,-000.32,-000.54,18.5,24.9,,00.0,0674.3,30.9
2021-08-31T08:21:00Z,00000200,01000000,0000.42,0000.30,0000.03,0000.51,0000.12,0000.08,-000.07,0000.13,0000.37,18.4,24.9,,00.0,0674.3,30.9
2021-08-31T08:22:00Z,00000200,01000000,0000.61,0000.12,0000.05,-000.13,0000.17,-000.05,0000.16,-000.32,-000.10,18.3,24.8,00.0,00.0,0674.3,30.9
2021-08-31T08:23:00Z,00000200,01000000,0000.27,-000.11,-000.02,0000.18,0000.28,-000.07,-001.26,-000.96,-001.10,18.3,24.8,,00.0,0674.3,30.9
2021-08-31T08:24:00Z,00000200,01000000,0000.42,0000.08,-000.21,-000.40,0000.24,-000.05,-000.64,-000.62,-000.50,18.2,24.8,,00.0,0674.3,30.9
2021-08-31T08:25:00Z,00000200,01000000,-000.17,0000.59,0000.37,0000.26,0000.05,0000.39,-000.78,-000.81,-000.58,18.1,24.7,,00.0,0674.3,30.9
2021-08-31T08:26:00Z,00000200,01000000,0000.39,0000.05,-000.12,-000.03,0000.26,0000.01,-001.11,-001.07,-000.84,18.1,24.7,,00.0,0674.4,30.9
2021-08-31T08:27:00Z,00000200,01000000,0000.18,0000.29,-000.18,0000.87,0000.03,0000.07,-000.42,-000.48,-000.19,18.0,24.6,,00.0,0674.4,30.9
2021-08-31T08:28:00Z,00000200,01000000,0000.85,0000.13,-000.43,0000.05,-000.14,-000.16,-000.69,-000.62,-000.46,18.0,24.6,,00.0,0674.3,30.9
2021-08-31T08:29:00Z,00000200,01000000,0000.48,-000.00,-000.17,0000.58,0000.06,-000.19,0000.40,0000.38,0000.46,17.9,24.6,,00.0,0674.3,30.9
2021-08-31T08:30:00Z,00000200,01000000,0000.26,0000.06,-000.17,0000.28,0000.11,-000.03,0001.07,0001.11,0000.54,18.0,24.6,,00.0,0674.3,30.9
2021-08-31T08:31:00Z,00000200,01000000,-000.39,0000.34,0000.11,0000.41,0000.18,0000.16,0000.70,0000.93,0000.89,18.1,24.6,,00.0,0674.3,30.9
2021-08-31T08:32:00Z,00000200,01000000,-000.04,-000.07,-000.13,0000.26,-000.22,0000.07,-000.10,-000.66,-000.44,18.2,24.7,,00.0,0674.3,30.9
2021-08-31T08:33:00Z,00000200,01000000,-000.45,0000.15,-000.33,0000.07,0000.07,-000.04,-000.00,-000.36,-000.00,18.3,24.7,,00.0,0674.3,30.9
2021-08-31T08:34:00Z,00000200,01000000,0000.38,0000.11,0000.30,0000.43,0000.10,-000.05,-000.06,0000.55,0000.34,18.4,24.8,,00.0,0674.3,30.9
2021-08-31T08:35:00Z,00000200,01000000,0000.07,0000.07,-000.00,0000.08,0000.24,-000.05,0000.62,0000.23,-000.07,18.5,24.8,,00.0,0674.3,31.0
2021-08-31T08:36:00Z,00000200,01000000,-000.11,0000.19,0000.02,0000.09,-000.11,0000.02,-000.62,0000.25,0000.26,18.4,24.8,,00.0,0674.3,31.0
2021-08-31T08:37:00Z,00000200,01000000,-000.02,0000.50,-000.09,-000.26,0000.32,0000.03,0000.62,0000.21,0000.16,18.4,24.8,,00.0,0674.3,30.9
2021-08-31T08:38:00Z,00000200,01000000,0000.87,0000.21,-000.07,0000.17,0000.16,0000.24,0000.45,0000.41,0000.39,18.3,24.8,,00.0,0674.3,30.9
2021-08-31T08:39:00Z,00000200,01000000,-000.14,0000.01,0000.13,-000.28,0000.26,0000.07,0000.17,0000.37,-000.25,18.2,24.8,,00.0,0674.3,30.9
2021-08-31T08:40:00Z,00000200,01000000,0000.60,0000.05,0000.16,0000.23,0000.08,-000.17,0000.63,0000.49,0000.27,18.2,24.7,,00.0,0674.3,30.9
2021-08-31T08:41:00Z,00000200,01000000,-000.25,0000.34,0000.07,0000.37,0000.24,0000.05,-000.44,-000.35,0000.24,18.1,24.7,,00.0,0674.3,30.9
2021-08-31T08:42:00Z,00000200,01000000,0000.70,0000.03,0000.06,0000.61,-000.09,0000.23,0000.51,0000.60,0000.07,18.1,24.6,,00.0,0674.3,30.9
2021-08-31T08:43:00Z,00000200,01000000,0000.07,0000.34,-000.17,0000.59,0000.15,0000.07,0000.36,-000.42,-000.00,18.0,24.6,,00.0,0674.3,30.9
2021-08-31T08:44:00Z,00000200,01000000,0000.04,0000.30,0000.01,-000.09,0000.13,0000.21,-000.04,0000.36,0000.54,18.0,24.6,,00.0,0674.3,30.9
2021-08-31T08:45:00Z,00000200,01000000,-000.21,0000.04,-000.32,-000.19,-000.19,-000.11,0000.52,0000.04,-000.03,18.1,24.6,,00.0,0674.3,30.9
2021-08-31T08:46:00Z,00000200,01000000,0000.31,0000.12,0000.05,0000.51,0000.00,-000.18,-000.02,0000.68,0000.19,18.2,24.6,,00.0,0674.3,30.9
2021-08-31T08:47:00Z,00000200,01000000,0000.13,0000.21,0000.18,-000.12,-000.02,0000.00,0000.42,0000.08,0000.11,18.3,24.7,,00.0,0674.4,30.9
2021-08-31T08:48:00Z,00000200,01000000,0000.48,0000.29,0000.00,0000.52,-000.01,0000.03,0000.47,0000.34,0000.41,18.4,24.8,00.0,00.0,0674.5,30.9
2021-08-31T08:49:00Z,00000200,01000000,0000.57,0000.37,0000.58,0000.18,0000.13,0000.10,-000.49,-000.03,-000.12,18.5,24.8,,00.0,0674.6,30.9
2021-08-31T08:50:00Z,00000200,01000000,0000.55,0000.27,0000.02,0000.09,-000.04,0000.03,-000.14,-000.64,0000.06,18.6,24.9,,00.0,0674.6,31.0
2021-08-31T08:51:00Z,00000200,01000000,0000.33,0000.20,0000.08,0000.09,-000.12,0000.00,-000.23,0000.00,-000.34,18.5,24.9,,00.0,0674.6,31.0
2021-08-31T08:52:00Z,00000200,01000000,0000.71,0000.23,-000.08,-000.37,0000.22,0000.20,0000.07,0000.13,-000.01,18.5,24.8,,00.0,0674.6,30.9
2021-08-31T08:53:00Z,00000200,01000000,0000.19,0000.11,0000.17,-000.08,0000.20,0000.07,0000.60,0000.49,0000.44,18.4,24.8,,00.0,0674.7,30.9
2021-08-31T08:54:00Z,00000200,01000000,0000.89,0000.08,-000.21,0000.11,0000.33,0000.27,-000.34,-000.43,-000.35,18.3,24.7,00.0,00.0,0674.7,30.9
2021-08-31T08:55:00Z,00000200,01000000,0000.36,0000.45,0000.02,-000.29,0000.16,0000.05,-000.28,0000.21,0000.10,18.2,24.7,,00.0,0674.8,30.9
2021-08-31T08:56:00Z,00000200,01000000,-000.28,-000.13,0000.01,-000.17,0000.02,0000.08,0000.59,0000.10,0000.06,18.2,24.7,00.0,00.0,0674.8,30.9
2021-08-31T08:57:00Z,00000200,41000000,,,,,,,-000.59,-000.26,-000.75,18.2,24.7,,00.0,0674.8,30.9
2021-08-31T08:58:00Z,00000200,61000000,,,,,,,-000.83,-001.20,-000.64,17.8,24.8,,00.0,0673.8,30.9
2021-08-31T08:59:00Z,00000200,21000000,,,,,,,-000.09,-000.54,-000.20,17.8,24.9,,00.0,0673.8,30.9
